Regional Weather Roundup
Issued by NWS Charleston, SC

Current Version | Previous Version | Graphics & Text | Print | Product List | Glossary On
Versions: 1 2 3 4 5 6 7 8 9 10 11 12 13 14 15 16 17 18 19 20 21 22 23 24 25 26 27 28 29 30 31 32 33 34 35 36 37 38 39 40 41 42 43 44 45 46 47 48 49 50
000
ASUS42 KCHS 222112
RWRCHS

REGIONAL WEATHER ROUNDUP
NATIONAL WEATHER SERVICE CHARLESTON SC
500 PM EDT SUN OCT 22 2017

NOTE: "FAIR" INDICATES FEW OR NO CLOUDS BELOW 12,000 FEET WITH NO
SIGNIFICANT WEATHER AND/OR OBSTRUCTIONS TO VISIBILITY.

NOT ALL STATIONS ARE QUALITY CONTROLLED. USE DATA WITH CAUTION...
ESPECIALLY DEWPOINT OBSERVATIONS.

SCZ027-030-031-034>040-042>050-222200-
...SOUTHEAST SOUTH CAROLINA...

CITY           SKY/WX    TMP DP  RH WIND       PRES   REMARKS
N CHARLESTON   LGT RAIN  73  71  93 NE7       30.18F
WATERFRONT PRK NOT AVBL
JOHNS ISLAND   CLOUDY    72  72 100 CALM      30.19F
PINOPOLIS        N/A     75  70  83 E9        30.13F
MONCKS CORNER  FAIR      75  66  73 E5        30.20F
SUMMERVILLE    DRIZZLE   72  70  94 CALM      30.21F
BEAUFORT MCAS  CLOUDY    73  73 100 MISG      30.18F
BEAUFORT ARPT  CLOUDY    72  70  94 E9        30.17F FOG
HILTON HEAD IS CLOUDY    73  70  88 NE9       30.18F
WALTERBORO     LGT RAIN  72  70  94 E9        30.21S
ALLENDALE        N/A     73  70  88 CALM        N/A

...SOUTHERN MIDLANDS AND PEE DEE...

CITY           SKY/WX    TMP DP  RH WIND       PRES   REMARKS
GEORGETOWN     NOT AVBL
KINGSTREE      NOT AVBL
ORANGEBURG     CLOUDY    72  68  87 SE3       30.21F
BARNWELL         N/A     72  70  94 CALM      30.21F
AIKEN          DRIZZLE   68  66  94 E3        30.25F
MANNING        CLOUDY    77  68  73 MISG      30.21S
COLUMBIA       CLOUDY    79  63  57 SE10      30.20F
SUMTER         CLOUDY    78  62  57 E8        30.19S
FLORENCE       PTSUNNY   79  63  57 SE13      30.22F
MYRTLE BEACH   NOT AVBL
N MYRTLE BEACH SUNNY     78  64  61 E8G20     30.24F

$$

GAZ063-065-086>088-099>101-113>116-118-119-134>141-150-222200-
...SOUTHEAST GEORGIA...

CITY           SKY/WX    TMP DP  RH WIND       PRES   REMARKS
SAVANNAH ARPT  PTSUNNY   80  70  71 E15       30.16S
HUNTER AAF     PTSUNNY   81  72  74 E8        30.13S
FORT STEWART   MOSUNNY   82  69  65 E14       30.12F
STATESBORO     CLOUDY    77  68  73 NE7       30.16F
SYLVANIA       CLOUDY    78  73  84 E8        30.18F
CLAXTON        CLOUDY    81  72  75 N6        30.15S

...CSRA...CENTRAL AND FAR SOUTHEAST GEORGIA...

CITY           SKY/WX    TMP DP  RH WIND       PRES   REMARKS
THOMSON        DRIZZLE   69  67  92 S5        30.25S FOG
AUGUSTA-BUSH   CLOUDY    72  68  87 NE6       30.20F
AUGUSTA-DANIEL CLOUDY    71  68  90 E9        30.21F
SWAINSBORO     FAIR      73  70  88 MISG      30.17F
VIDALIA        CLOUDY    81  70  69 E9        30.14F
EASTMAN        MOCLDY    83  55  37 E7        30.14F
HAZLEHURST     FAIR      85  59  42 E7        30.11F
ALMA           MOSUNNY   85  70  60 VRB7      30.10F
WAYCROSS       PTSUNNY   83  68  59 SE12G17   30.10S
JESUP          NOT AVBL
BAXLEY         FAIR      81  68  65 E12       30.11F
BRUNSWICK      DRIZZLE   73  70  88 S5        30.14S
SAINT SIMONS   NOT AVBL

$$

SCZ027-028-034-036>038-045-046-048>050-GAZ119-141-222200-
...LAKE AND SUPPLEMENTAL COASTAL OBSERVATIONS...

STATION/POSITION TIME  TEMP    WIND        PRES    WAVE   SWELL
                       AIR SEA DIR/SP/G            HT/PER HT/PER/DIR
                 (UTC) (F)     (DEG/KT/KT) (MB)    (FT/S) (FT/S/D)
WINYAH BAY       1945   76      80/  9     1024.0
LAKE MURRAY      2020   75     100/  8/ 10 1022.4
ACE BASIN NERRS  1945   79      70/  4     1022.0
FORT PULASKI     2036   74 74   90/  9/ 11 1021.8F
SAPELO ISLAND    NOT AVBL

$$

ANZ835-935-AMZ111-154-330-350-352-354-370-450-454-472-222200-
...C-MAN AND BUOY OBSERVATIONS...

STATION/POSITION TIME  TEMP    WIND        PRES    WAVE   SWELL
                       AIR SEA DIR/SP/G            HT/PER HT/PER/DIR
                 (UTC) (F)     (DEG/KT/KT) (MB)    (FT/S) (FT/S/D)
BUOY 41004       2050   74 79   90/ 12/ 17 1022.0F   6/ 7   3/120/ 8
BUOY 41008       2050   76 78  150/ 14/ 16 1020.4F   5/ 8   3/100/ 8
FOLLY BEACH CMAN 2000   73     220/  9/ 10 1023.1F
CAPERS NEARSHORE 2008   73 73   90/ 14/ 19 1022.3F
FRIPP NEARSHORE  2008   73      80/  6/ 12   N/A


STATION/POSITION TIME  TEMP    WIND        PRES    WAVE   SWELL
                       AIR SEA DIR/SP/G            HT/PER HT/PER/DIR
                 (UTC) (F)     (DEG/KT/KT) (MB)    (FT/S) (FT/S/D)
5E ST. MARYS GA  2030      76                N/A     5/ 6
FRYING PAN BUOY  2050   77 77   90/ 12/ 14 1023.7F   4/ 8   2/110/ 8
BUOY 41025       2050   76 81  100/  4/  8 1025.6F   3/ 9   3/ 90/ 9
CAPE LOOKOUT NC  2000   76     110/  9/ 10 1024.9F
BUOY 41002       2050   77 80   90/ 14/ 16 1023.9F   4/ 7   3/110/ 7
BUOY 41010       NOT AVBL
ST AUGUSTINE FL  2100   77 78   80/ 12/ 13 1019.4F


$$




USA.gov is the U.S. government's official web portal to all federal, state and local government web resources and services.